Timestamp[UTC];2m Lufttemperatur [degC] (tas);Stations-Luftdruck [Pa] (ps);relative Luftfeuchtigkeit [%] (hurs);spezifische Luftfeuchtigkeit [kg/kg] (huss);Niederschlagsmenge [mm] (pr);Windgeschwindigkeit in 2m [m/s] (sfcWind);Windrichtung [deg];maximale Windgeschwindigkeit [m/s] (wsgsmax);u-Windkomponente [m/s] (uas);v-Windkomponente [m/s] (vas);Sonneneinstrahlung [W/m2];Blitzrate [n];Blitzentfernung [km];Bodenfeuchte in 5cm Tiefe [vol%];Bodenfeuchte in 15cm Tiefe [vol%];Bodenfeuchte in 30cm Tiefe [vol%];Bodenfeuchte in 60cm Tiefe [vol%];Bodentemperatur in 5cm Tiefe [degC];Bodentemperatur in 15cm Tiefe [degC];Bodentemperatur in 30cm Tiefe [degC];Bodentemperatur in 60cm Tiefe [degC];Matrixpotential in 30cm Tiefe [kPa];Bodenfeuchte aus CRNS [vol%] (mrso);Neutronen Anzahl [N/h]
2023-11-01 00:00:00;11,4;100178;94;0,0079;0,42;2,0;206;4,1;-0,85;-1,78;0;0;nan;40,0;40,5;42,0;41,2;12,2;12,5;12,6;13,0;-7,6;30,2;1465
2023-11-01 01:00:00;11,2;100105;94;0,0078;0,0;1,9;185;3,6;-0,16;-1,92;0;0;nan;40,2;40,6;42,0;41,2;12,2;12,5;12,6;13,0;-7,6;30,2;1465
2023-11-01 02:00:00;11,1;100050;94;0,0078;0,74;2,2;182;3,6;-0,06;-2,23;0;0;nan;40,2;40,6;42,0;41,2;12,2;12,4;12,6;13,0;-7,6;30,3;1463
2023-11-01 03:00:00;11,1;99943;96;0,0079;1,17;2,4;180;4,2;0,02;-2,4;0;0;nan;40,7;40,7;42,0;41,2;12,2;12,4;12,6;13,0;-7,6;30,1;1465
2023-11-01 04:00:00;11,2;99914;98;0,0081;1,79;2,6;191;4,4;-0,47;-2,49;0;0;nan;41,4;40,9;42,1;41,3;12,2;12,4;12,6;13,0;-7,6;30,4;1462
2023-11-01 05:00:00;11,5;99879;100;0,0084;0,31;2,6;209;4,5;-1,25;-2,21;0;0;nan;41,9;41,2;42,2;41,3;12,2;12,4;12,6;13,0;-7,6;30,4;1462
2023-11-01 06:00:00;11,2;99870;100;0,0083;0,0;2,2;197;3,9;-0,65;-2,08;7;0;nan;41,7;41,2;42,2;41,4;12,2;12,4;12,6;13,0;-7,6;30,3;1463
2023-11-01 07:00:00;11,7;99870;99;0,0085;0,0;2,2;191;3,9;-0,4;-2,13;40;0;nan;41,5;41,1;42,2;41,4;12,2;12,4;12,6;13,0;-7,6;30,3;1464
2023-11-01 08:00:00;12,5;99854;95;0,0086;0,0;2,4;182;3,9;-0,07;-2,36;76;0;nan;41,3;41,0;42,2;41,5;12,2;12,4;12,6;13,0;-7,6;30,9;1455
2023-11-01 09:00:00;13,1;99829;90;0,0085;0,0;2,9;185;5,2;-0,23;-2,88;104;0;nan;41,2;40,9;42,1;41,5;12,2;12,4;12,6;13,0;-7,6;31,2;1451
2023-11-01 10:00:00;13,6;99786;88;0,0086;0,0;2,8;178;5,0;0,12;-2,8;164;0;nan;41,1;40,8;42,1;41,5;12,3;12,4;12,6;13,0;-7,6;31,3;1450
2023-11-01 11:00:00;14,3;99683;86;0,0087;0,0;3,4;176;5,2;0,25;-3,34;189;0;nan;40,9;40,8;42,1;41,4;12,4;12,5;12,5;13,0;-7,6;31,5;1448
2023-11-01 12:00:00;14,4;99593;84;0,0086;0,0;3,3;168;5,4;0,67;-3,23;125;0;nan;40,8;40,7;42,1;41,4;12,6;12,5;12,6;13,0;-7,6;31,2;1451
2023-11-01 13:00:00;14,2;99487;83;0,0084;0,0;3,5;163;5,2;1,01;-3,3;86;0;nan;40,5;40,7;42,1;41,4;12,6;12,6;12,6;13,0;-7,6;31,2;1451
2023-11-01 14:00:00;13,8;99426;81;0,0081;0,0;3,4;159;6,8;1,18;-3,14;38;0;nan;40,3;40,6;42,0;41,4;12,7;12,6;12,6;13,0;-7,6;31,1;1453
2023-11-01 15:00:00;13,6;99380;82;0,008;0,22;3,5;168;6,4;0,74;-3,4;13;0;nan;40,2;40,6;42,0;41,4;12,7;12,7;12,6;13,0;-7,6;31,2;1452
2023-11-01 16:00:00;12,7;99385;84;0,0078;0,32;3,8;194;6,6;-0,91;-3,67;0;0;nan;40,2;40,6;42,0;41,4;12,6;12,7;12,6;13,0;-7,6;31,1;1453
2023-11-01 17:00:00;12,8;99408;82;0,0075;0,0;4,4;197;9,2;-1,3;-4,2;0;0;nan;40,2;40,6;42,0;41,4;12,6;12,7;12,6;13,0;-7,6;30,5;1461
2023-11-01 18:00:00;11,8;99405;84;0,0072;0,0;3,4;199;5,7;-1,08;-3,15;0;0;nan;40,1;40,6;42,0;41,4;12,5;12,7;12,7;13,0;-7,6;30,5;1461
2023-11-01 19:00:00;11,4;99366;84;0,0071;0,0;3,3;191;6,1;-0,63;-3,21;0;0;nan;40,0;40,5;42,0;41,4;12,4;12,6;12,7;13,0;-7,6;30,5;1461
2023-11-01 20:00:00;11,1;99334;85;0,007;0,0;3,1;190;5,6;-0,54;-3,03;0;0;nan;39,9;40,5;42,0;41,3;12,3;12,6;12,7;13,0;-7,6;30,8;1457
2023-11-01 21:00:00;11,0;99250;85;0,007;0,0;2,8;178;5,3;0,09;-2,75;0;0;nan;39,8;40,5;42,0;41,3;12,2;12,5;12,7;13,0;-7,6;30,8;1457
2023-11-01 22:00:00;10,0;99150;88;0,0068;0,0;2,1;159;3,6;0,74;-1,98;0;0;nan;39,7;40,5;42,0;41,3;12,1;12,5;12,6;13,0;-7,6;30,8;1457
2023-11-01 23:00:00;9,0;99037;90;0,0065;0,0;1,7;141;2,6;1,05;-1,3;0;0;nan;39,6;40,4;42,0;41,3;12,1;12,4;12,6;13,0;-7,6;30,8;1457
2023-11-02 00:00:00;9,4;98872;90;0,0067;0,0;2,5;137;4,0;1,71;-1,82;0;0;nan;39,5;40,3;41,9;41,3;11,9;12,4;12,6;13,0;-7,6;30,7;1458
2023-11-02 01:00:00;10,2;98725;88;0,0069;0,0;2,9;149;4,3;1,46;-2,44;0;0;nan;39,4;40,3;41,9;41,3;11,9;12,3;12,6;13,0;-7,6;30,8;1457
2023-11-02 02:00:00;11,1;98504;84;0,007;0,0;4,4;153;7,4;1,96;-3,91;0;0;nan;39,4;40,3;41,9;41,3;11,8;12,2;12,6;13,0;-7,6;30,5;1460
2023-11-02 03:00:00;11,4;98233;82;0,007;0,0;4,5;148;7,6;2,34;-3,77;0;0;nan;39,3;40,3;41,9;41,3;11,8;12,2;12,5;13,0;-7,6;29,9;1469
2023-11-02 04:00:00;11,3;97836;82;0,007;0,0;5,6;148;8,9;2,89;-4,62;0;0;nan;39,2;40,2;41,9;41,3;11,8;12,2;12,5;13,0;-7,6;28,9;1482
2023-11-02 05:00:00;11,8;97707;79;0,007;0,0;5,6;157;9,8;2,13;-5,09;0;0;nan;39,2;40,2;41,9;41,3;11,8;12,2;12,5;13,0;-7,6;29,0;1481
2023-11-02 06:00:00;11,3;97691;84;0,0072;1,02;5,1;169;9,0;1,0;-4,96;0;0;nan;39,1;40,2;41,8;41,3;11,7;12,1;12,5;13,0;-7,6;29,2;1478
2023-11-02 07:00:00;11,5;97556;86;0,0075;0,07;3,4;155;5,3;1,44;-3,04;5;0;nan;39,5;40,3;41,9;41,2;11,7;12,1;12,4;13,0;-7,6;29,2;1479
2023-11-02 08:00:00;12,6;97448;85;0,008;0,0;3,8;153;6,3;1,68;-3,3;108;0;nan;39,5;40,3;41,9;41,2;11,7;12,1;12,4;13,0;-7,6;28,8;1484
2023-11-02 09:00:00;13,7;97375;78;0,0078;0,0;4,8;177;7,9;0,24;-4,78;112;0;nan;39,5;40,3;41,9;41,2;11,7;12,0;12,4;13,0;-7,6;28,8;1484
2023-11-02 10:00:00;14,2;97338;72;0,0075;0,0;5,8;186;9,8;-0,65;-5,75;166;0;nan;39,4;40,3;41,9;41,2;11,8;12,1;12,4;12,9;-7,6;28,0;1495
2023-11-02 11:00:00;14,9;97300;68;0,0074;0,0;6,5;193;12,0;-1,46;-6,23;250;0;nan;39,2;40,2;41,9;41,2;11,9;12,1;12,4;12,9;-7,6;27,7;1500
2023-11-02 12:00:00;14,7;97303;66;0,0071;0,0;6,4;193;11,0;-1,48;-6,21;184;0;nan;39,1;40,2;41,9;41,2;11,9;12,1;12,3;12,9;-7,6;28,1;1493
2023-11-02 13:00:00;14,7;97260;63;0,0068;0,0;6,4;190;10,8;-1,13;-6,28;152;0;nan;38,9;40,1;41,8;41,2;12,0;12,1;12,3;12,9;-7,6;27,9;1497
2023-11-02 14:00:00;14,2;97255;63;0,0066;0,0;5,6;188;10,3;-0,79;-5,49;43;0;nan;38,7;40,1;41,8;41,2;12,0;12,1;12,3;12,9;-7,6;27,9;1498
2023-11-02 15:00:00;13,9;97307;63;0,0064;0,0;6,4;188;10,4;-0,83;-6,3;18;0;nan;38,6;40,1;41,7;41,2;11,9;12,1;12,3;12,9;-7,6;27,6;1502
2023-11-02 16:00:00;12,7;97378;69;0,0065;0,05;4,5;205;8,1;-1,86;-4,05;0;0;nan;38,5;40,0;41,7;41,2;11,8;12,1;12,3;12,9;-7,7;27,7;1500
2023-11-02 17:00:00;12,5;97454;69;0,0064;0,02;5,6;190;9,5;-0,96;-5,39;0;0;nan;38,4;40,0;41,7;41,2;11,8;12,1;12,3;12,9;-7,7;27,7;1500
2023-11-02 18:00:00;12,6;97526;68;0,0063;0,0;4,8;185;8,2;-0,38;-4,7;0;0;nan;38,3;40,0;41,7;41,2;11,7;12,1;12,3;12,9;-7,7;28,1;1494
2023-11-02 19:00:00;11,8;97564;70;0,0061;0,0;4,7;201;8,0;-1,67;-4,34;0;0;nan;38,2;39,9;41,7;41,2;11,6;12,0;12,3;12,9;-7,7;27,9;1497
2023-11-02 20:00:00;11,2;97580;72;0,0061;0,0;5,4;209;9,2;-2,56;-4,67;0;0;nan;38,1;39,9;41,6;41,2;11,5;12,0;12,3;12,9;-7,7;28,0;1495
2023-11-02 21:00:00;10,7;97594;74;0,0061;0,0;5,0;214;9,6;-2,77;-4,17;0;0;nan;38,1;39,9;41,6;41,2;11,4;11,9;12,3;12,9;-7,7;27,9;1497
2023-11-02 22:00:00;9,1;97642;84;0,0062;0,18;4,4;215;7,6;-2,48;-3,57;0;0;nan;38,0;39,8;41,6;41,1;11,4;11,8;12,3;12,9;-7,7;27,7;1500
2023-11-02 23:00:00;8,6;97673;87;0,0062;0,05;4,8;211;8,7;-2,45;-4,05;0;0;nan;38,0;39,8;41,6;41,1;11,3;11,8;12,2;12,9;-7,7;27,9;1497
2023-11-03 00:00:00;8,9;97710;84;0,0061;0,0;4,8;218;7,5;-2,9;-3,76;0;0;nan;38,0;39,8;41,6;41,1;11,2;11,7;12,2;12,9;-7,7;28,0;1495
2023-11-03 01:00:00;9,1;97762;81;0,006;0,0;4,8;214;8,1;-2,66;-3,96;0;0;nan;37,9;39,8;41,6;41,1;11,2;11,7;12,2;12,9;-7,7;28,1;1494
2023-11-03 02:00:00;9,3;97795;80;0,006;0,0;5,3;214;9,1;-2,95;-4,34;0;0;nan;37,9;39,8;41,6;41,1;11,1;11,6;12,1;12,8;-7,7;28,0;1495
2023-11-03 03:00:00;9,2;97837;80;0,006;0,0;4,6;224;8,8;-3,17;-3,25;0;0;nan;37,8;39,8;41,6;41,1;11,0;11,6;12,1;12,8;-7,8;28,5;1487
2023-11-03 04:00:00;9,1;97860;82;0,006;0,0;4,4;228;7,4;-3,23;-2,87;0;0;nan;37,7;39,8;41,6;41,1;11,0;11,5;12,1;12,8;-7,8;29,5;1474
2023-11-03 05:00:00;8,7;97898;83;0,006;0,0;3,8;230;8,5;-2,91;-2,46;0;0;nan;37,7;39,8;41,5;41,1;10,9;11,5;12,0;12,8;-7,8;29,8;1469
2023-11-03 06:00:00;8,8;97975;83;0,006;0,0;3,5;216;6,0;-2,03;-2,81;6;0;nan;37,6;39,7;41,5;41,1;10,8;11,4;12,0;12,8;-7,8;29,6;1473
2023-11-03 07:00:00;8,9;98036;83;0,006;0,0;3,3;226;5,5;-2,31;-2,27;42;0;nan;37,5;39,7;41,5;41,1;10,8;11,4;12,0;12,8;-7,8;29,4;1476
2023-11-03 08:00:00;9,7;98045;85;0,0065;0,0;3,4;236;5,9;-2,75;-1,89;187;0;nan;37,5;39,7;41,4;41,1;10,8;11,3;11,9;12,8;-7,8;29,2;1478
2023-11-03 09:00:00;9,9;98152;86;0,0066;0,0;4,0;217;6,4;-2,43;-3,19;200;0;nan;37,4;39,7;41,4;41,0;10,9;11,3;11,9;12,8;-7,8;28,9;1482
2023-11-03 10:00:00;10,5;98231;84;0,0068;0,0;4,1;212;6,8;-2,11;-3,4;218;0;nan;37,3;39,6;41,4;41,0;10,9;11,3;11,9;12,8;-7,8;29,3;1477
2023-11-03 11:00:00;10,5;98258;83;0,0067;0,0;4,2;221;6,6;-2,74;-3,16;185;0;nan;37,2;39,6;41,4;41,0;11,0;11,4;11,9;12,8;-7,8;29,2;1479
2023-11-03 12:00:00;10,5;98293;83;0,0067;0,0;4,2;229;7,7;-3,16;-2,74;214;0;nan;37,1;39,6;41,3;41,0;11,1;11,4;11,8;12,7;-7,8;28,1;1494
2023-11-03 13:00:00;10,8;98313;81;0,0066;0,0;3,3;237;5,1;-2,67;-1,74;143;0;nan;37,0;39,6;41,3;41,0;11,1;11,4;11,8;12,7;-7,8;28,0;1496
2023-11-03 14:00:00;10,6;98374;78;0,0063;0,0;3,3;223;5,7;-2,25;-2,39;93;0;nan;36,9;39,5;41,3;41,0;11,2;11,5;11,8;12,7;-7,8;27,9;1496
2023-11-03 15:00:00;9,9;98432;79;0,0061;0,0;2,8;206;5,9;-1,2;-2,51;35;0;nan;36,9;39,5;41,2;41,0;11,2;11,5;11,8;12,7;-7,8;28,1;1494
2023-11-03 16:00:00;8,4;98467;82;0,0057;0,0;2,1;195;3,4;-0,52;-1,98;1;0;nan;36,8;39,5;41,2;41,0;11,1;11,5;11,8;12,7;-7,8;27,6;1501
2023-11-03 17:00:00;7,8;98498;83;0,0056;0,0;2,0;195;3,3;-0,52;-1,92;0;0;nan;36,8;39,5;41,2;41,0;11,0;11,4;11,9;12,7;-7,8;27,8;1499
2023-11-03 18:00:00;7,9;98527;83;0,0056;0,0;2,6;201;5,1;-0,91;-2,36;0;0;nan;36,8;39,4;41,2;41,0;10,9;11,4;11,9;12,7;-7,8;27,8;1499
2023-11-03 19:00:00;8,4;98537;83;0,0058;0,0;2,0;207;3,3;-0,9;-1,76;0;0;nan;36,7;39,4;41,2;41,0;10,8;11,4;11,8;12,7;-7,8;28,0;1495
2023-11-03 20:00:00;8,8;98550;80;0,0057;0,0;2,9;205;4,7;-1,23;-2,58;0;0;nan;36,7;39,4;41,1;41,0;10,8;11,3;11,8;12,6;-7,8;27,9;1497
2023-11-03 21:00:00;7,9;98520;81;0,0055;0,0;2,6;192;4,2;-0,55;-2,52;0;0;nan;36,7;39,4;41,1;40,9;10,7;11,3;11,8;12,6;-7,8;27,7;1501
2023-11-03 22:00:00;7,3;98505;83;0,0054;0,0;2,6;183;3,9;-0,15;-2,58;0;0;nan;36,6;39,4;41,1;40,9;10,7;11,2;11,8;12,6;-7,8;27,9;1497
2023-11-03 23:00:00;7,2;98499;83;0,0053;0,0;2,8;171;4,6;0,46;-2,77;0;0;nan;36,6;39,4;41,1;40,9;10,6;11,2;11,7;12,6;-7,8;27,7;1501
2023-11-04 00:00:00;7,4;98460;83;0,0054;0,0;2,6;168;4,4;0,55;-2,54;0;0;nan;36,6;39,4;41,1;40,9;10,5;11,1;11,7;12,6;-7,8;28,1;1494
2023-11-04 01:00:00;8,1;98445;82;0,0056;0,0;2,6;176;4,7;0,2;-2,61;0;0;nan;36,5;39,4;41,1;40,9;10,4;11,1;11,7;12,6;-7,8;27,9;1497
2023-11-04 02:00:00;8,2;98391;83;0,0057;0,0;2,5;174;4,1;0,28;-2,52;0;0;nan;36,5;39,4;41,1;40,9;10,4;11,0;11,7;12,6;-7,8;28,1;1494
2023-11-04 03:00:00;9,0;98346;84;0,0061;0,0;2,7;188;4,5;-0,39;-2,68;0;0;nan;36,5;39,3;41,1;40,9;10,4;11,0;11,6;12,6;-7,8;28,1;1494
2023-11-04 04:00:00;9,1;98289;86;0,0063;0,0;2,8;190;4,7;-0,49;-2,78;0;0;nan;36,4;39,3;41,0;40,8;10,4;11,0;11,6;12,6;-7,9;27,6;1502
2023-11-04 05:00:00;9,3;98239;85;0,0063;0,0;3,2;185;4,9;-0,3;-3,17;0;0;nan;36,4;39,3;41,0;40,8;10,5;11,0;11,6;12,6;-7,9;27,5;1503
2023-11-04 06:00:00;8,5;98175;87;0,0061;0,0;2,4;165;4,4;0,62;-2,34;2;0;nan;36,4;39,3;41,0;40,8;10,5;10,9;11,5;12,5;-7,9;27,8;1498
2023-11-04 07:00:00;8,0;98093;88;0,006;0,0;2,2;162;3,3;0,66;-2,04;38;0;nan;36,3;39,3;41,0;40,8;10,5;11,0;11,5;12,5;-7,9;28,3;1491
2023-11-04 08:00:00;9,0;97995;87;0,0064;0,0;2,9;155;5,1;1,2;-2,6;72;0;nan;36,3;39,3;41,0;40,8;10,4;10,9;11,5;12,5;-7,9;28,6;1487
2023-11-04 09:00:00;9,9;97858;87;0,0068;0,0;3,4;155;5,5;1,41;-3,06;157;0;nan;36,3;39,3;41,0;40,8;10,5;10,9;11,5;12,5;-7,9;28,4;1490
2023-11-04 10:00:00;10,6;97724;82;0,0067;0,0;3,3;160;5,4;1,14;-3,1;78;0;nan;36,2;39,3;40,9;40,8;10,6;10,9;11,5;12,5;-7,9;28,8;1484
2023-11-04 11:00:00;9,8;97545;86;0,0066;0,6;3,2;161;5,7;1,05;-2,96;76;0;nan;36,2;39,3;40,9;40,8;10,7;11,0;11,4;12,5;-7,9;29,2;1478
2023-11-04 12:00:00;8,3;97355;96;0,0068;0,65;3,7;141;6,6;2,33;-2,84;77;0;nan;36,3;39,3;40,9;40,8;10,8;11,0;11,4;12,5;-7,9;30,0;1467
2023-11-04 13:00:00;8,4;97222;97;0,0069;0,16;3,8;148;6,1;2,01;-3,24;56;0;nan;36,6;39,3;40,9;40,8;10,8;11,1;11,4;12,4;-7,9;30,2;1464
2023-11-04 14:00:00;9,0;97093;94;0,0069;0,04;4,1;156;7,0;1,67;-3,75;31;0;nan;36,7;39,4;41,0;40,8;10,9;11,1;11,5;12,4;-7,9;30,8;1457
2023-11-04 15:00:00;9,7;97045;90;0,007;0,0;3,4;165;5,8;0,9;-3,28;15;0;nan;36,8;39,4;41,0;40,8;10,9;11,1;11,5;12,4;-7,9;31,0;1454
2023-11-04 16:00:00;9,9;97030;87;0,0069;0,0;3,2;163;4,7;0,92;-3,05;0;0;nan;36,8;39,4;41,0;40,8;10,9;11,1;11,5;12,4;-7,9;31,8;1444
2023-11-04 17:00:00;9,6;97026;89;0,0069;0,02;2,8;159;4,2;0,98;-2,63;0;0;nan;36,7;39,4;41,0;40,8;10,8;11,2;11,5;12,4;-7,9;32,1;1440
2023-11-04 18:00:00;9,8;97009;90;0,007;0,03;2,6;162;4,9;0,79;-2,49;0;0;nan;36,7;39,4;41,0;40,8;10,8;11,1;11,5;12,4;-7,9;31,8;1444
2023-11-04 19:00:00;9,7;96994;92;0,0071;0,85;2,4;156;3,9;0,91;-2,09;0;0;nan;36,7;39,4;41,0;40,7;10,8;11,1;11,5;12,4;-7,9;32,0;1441
2023-11-04 20:00:00;8,6;97056;98;0,0071;0,77;2,5;221;3,9;-1,56;-1,78;0;0;nan;37,5;39,5;41,1;40,7;10,8;11,1;11,5;12,4;-7,9;32,7;1434
2023-11-04 21:00:00;8,5;97057;96;0,0068;0,02;1,8;183;2,7;-0,1;-1,82;0;0;nan;38,7;39,8;41,2;40,8;10,8;11,1;11,5;12,3;-7,8;33,3;1426
2023-11-04 22:00:00;9,0;97032;97;0,0071;0,0;2,3;180;4,0;0,0;-2,26;0;0;nan;38,8;39,9;41,3;40,7;10,7;11,1;11,5;12,4;-7,8;33,4;1424
2023-11-04 23:00:00;8,8;97007;95;0,0069;0,0;2,1;163;4,0;0,62;-2,02;0;0;nan;38,7;40,0;41,4;40,7;10,7;11,1;11,5;12,3;-7,8;33,9;1419
2023-11-05 00:00:00;9,5;96935;90;0,0069;0,0;2,2;161;3,4;0,71;-2,12;0;0;nan;38,7;40,0;41,4;40,7;10,7;11,1;11,4;12,3;-7,8;33,6;1422
2023-11-05 01:00:00;9,0;96862;95;0,007;1,36;2,0;133;3,1;1,37;-1,29;0;0;nan;38,8;40,0;41,5;40,8;10,7;11,1;11,4;12,3;-7,7;33,4;1424
2023-11-05 02:00:00;8,8;96797;97;0,0071;0,48;2,2;138;3,4;1,38;-1,55;0;0;nan;39,9;40,2;41,5;40,8;10,7;11,0;11,4;12,3;-7,7;33,0;1429
2023-11-05 03:00:00;9,1;96790;98;0,0073;1,09;1,3;191;1,9;-0,21;-1,06;0;0;nan;41,1;40,7;41,7;40,8;10,7;11,0;11,4;12,3;-7,7;32,8;1432
2023-11-05 04:00:00;9,3;96774;98;0,0074;0,31;2,0;167;2,8;0,43;-1,88;0;0;nan;41,7;41,1;41,8;40,8;10,7;11,0;11,4;12,3;-7,6;33,3;1426
2023-11-05 05:00:00;9,7;96799;96;0,0075;0,1;2,1;174;3,4;0,22;-2,07;0;0;nan;41,7;41,2;41,9;40,9;10,7;11,0;11,4;12,3;-7,6;33,3;1426
2023-11-05 06:00:00;9,7;96840;97;0,0075;0,02;2,0;176;3,2;0,13;-2,02;2;0;nan;41,5;41,1;41,9;41,0;10,7;11,0;11,4;12,3;-7,6;33,3;1426
2023-11-05 07:00:00;9,8;96910;97;0,0076;0,0;2,1;193;3,2;-0,47;-2,05;36;0;nan;41,3;41,1;41,9;41,1;10,7;11,0;11,4;12,3;-7,6;33,0;1429
2023-11-05 08:00:00;10,2;97006;99;0,0079;0,09;2,4;206;4,0;-1,05;-2,13;78;0;nan;41,2;41,0;41,9;41,2;10,7;11,0;11,4;12,3;-7,6;33,4;1425
2023-11-05 09:00:00;10,7;97108;98;0,0081;0,29;2,7;231;4,7;-2,07;-1,68;103;0;nan;41,1;41,0;41,9;41,2;10,8;11,0;11,4;12,2;-7,6;34,0;1418
2023-11-05 10:00:00;10,9;97253;95;0,0079;0,1;3,5;241;6,6;-3,03;-1,65;94;0;nan;41,1;40,9;42,0;41,2;10,9;11,1;11,4;12,2;-7,6;33,8;1420
2023-11-05 11:00:00;10,6;97432;95;0,0078;0,8;3,3;254;5,8;-3,14;-0,88;71;0;nan;41,3;41,0;42,0;41,3;11,0;11,1;11,4;12,2;-7,6;33,7;1422
2023-11-05 12:00:00;10,3;97588;97;0,0078;0,0;3,3;258;5,6;-3,21;-0,69;66;0;nan;41,4;41,1;42,0;41,3;11,1;11,2;11,4;12,2;-7,6;33,5;1424
2023-11-05 13:00:00;10,8;97745;91;0,0075;0,02;3,8;261;6,1;-3,7;-0,61;39;0;nan;41,4;41,1;42,1;41,3;11,1;11,2;11,4;12,2;-7,6;33,4;1424
2023-11-05 14:00:00;10,2;97940;92;0,0073;0,55;3,5;257;6,3;-3,4;-0,8;15;0;nan;41,3;41,0;42,1;41,3;11,1;11,2;11,4;12,2;-7,6;33,0;1430
2023-11-05 15:00:00;9,8;98101;94;0,0072;0,15;3,9;255;6,6;-3,7;-0,96;11;0;nan;41,6;41,1;42,1;41,3;11,1;11,3;11,4;12,2;-7,6;32,7;1432
2023-11-05 16:00:00;10,3;98317;90;0,0071;0,0;3,7;257;6,2;-3,56;-0,83;0;0;nan;41,7;41,2;42,1;41,4;11,1;11,3;11,4;12,2;-7,6;32,3;1438
2023-11-05 17:00:00;10,4;98501;83;0,0066;0,0;3,8;248;7,1;-3,49;-1,4;0;0;nan;41,6;41,1;42,1;41,4;11,0;11,3;11,5;12,2;-7,6;32,3;1438
2023-11-05 18:00:00;10,0;98644;83;0,0064;0,0;2,9;250;5,6;-2,75;-1,01;0;0;nan;41,5;41,1;42,1;41,4;10,9;11,2;11,4;12,2;-7,6;32,2;1439
2023-11-05 19:00:00;10,0;98750;83;0,0064;0,0;3,1;241;5,5;-2,65;-1,46;0;0;nan;41,4;41,0;42,1;41,4;10,8;11,2;11,4;12,2;-7,6;31,8;1444
2023-11-05 20:00:00;9,9;98851;85;0,0065;0,0;3,5;242;5,9;-3,02;-1,62;0;0;nan;41,2;41,0;42,1;41,4;10,8;11,2;11,4;12,2;-7,6;31,9;1443
2023-11-05 21:00:00;9,8;98958;86;0,0066;0,0;3,5;244;6,5;-3,12;-1,54;0;0;nan;41,1;40,9;42,1;41,4;10,7;11,1;11,5;12,2;-7,6;31,1;1452
2023-11-05 22:00:00;9,7;99030;86;0,0065;0,0;3,3;231;6,4;-2,51;-2,06;0;0;nan;41,0;40,9;42,1;41,4;10,7;11,1;11,4;12,2;-7,6;30,5;1460
2023-11-05 23:00:00;10,2;99087;86;0,0067;0,0;3,7;236;6,2;-3,08;-2,09;0;0;nan;40,8;40,8;42,1;41,4;10,6;11,1;11,4;12,2;-7,6;30,8;1456
2023-11-06 00:00:00;10,1;99145;87;0,0068;0,03;3,8;240;6,4;-3,23;-1,83;0;0;nan;40,6;40,8;42,1;41,4;10,6;11,0;11,4;12,2;-7,6;30,6;1459
2023-11-06 01:00:00;10,0;99224;87;0,0067;0,0;3,3;240;5,9;-2,82;-1,65;0;0;nan;40,4;40,8;42,1;41,4;10,6;11,0;11,4;12,2;-7,6;31,0;1454
2023-11-06 02:00:00;10,0;99271;86;0,0066;0,0;3,8;244;6,6;-3,43;-1,65;0;0;nan;40,2;40,8;42,1;41,4;10,6;11,0;11,4;12,1;-7,6;31,4;1449
2023-11-06 03:00:00;9,9;99366;86;0,0066;0,0;3,8;244;7,0;-3,35;-1,65;0;0;nan;40,0;40,7;42,1;41,4;10,6;11,0;11,4;12,2;-7,6;31,4;1449
2023-11-06 04:00:00;9,6;99446;86;0,0065;0,0;3,1;242;5,5;-2,75;-1,44;0;0;nan;39,9;40,7;42,1;41,4;10,6;11,0;11,3;12,1;-7,6;30,9;1455
2023-11-06 05:00:00;9,6;99532;86;0,0065;0,0;3,6;234;6,1;-2,85;-2,04;0;0;nan;39,8;40,7;42,1;41,3;10,6;10,9;11,3;12,1;-7,6;31,0;1454
2023-11-06 06:00:00;9,6;99586;87;0,0065;0,0;3,7;227;7,8;-2,72;-2,52;2;0;nan;39,6;40,6;42,1;41,3;10,5;10,9;11,3;12,1;-7,6;30,9;1455
2023-11-06 07:00:00;9,8;99658;86;0,0065;0,0;3,4;234;6,8;-2,71;-1,98;29;0;nan;39,5;40,6;42,1;41,3;10,5;10,9;11,3;12,1;-7,6;30,8;1456
2023-11-06 08:00:00;10,1;99703;85;0,0066;0,0;3,3;222;5,5;-2,15;-2,42;67;0;nan;39,4;40,5;42,1;41,3;10,5;10,9;11,3;12,1;-7,6;30,7;1458
2023-11-06 09:00:00;11,0;99697;87;0,0072;0,0;3,7;220;6,9;-2,34;-2,83;240;0;nan;39,3;40,5;42,1;41,3;10,5;10,9;11,3;12,1;-7,6;30,3;1463
2023-11-06 10:00:00;11,9;99722;83;0,0072;0,0;4,0;229;8,3;-2,98;-2,62;260;0;nan;39,2;40,4;42,1;41,3;10,6;10,9;11,3;12,1;-7,6;30,1;1466
2023-11-06 11:00:00;12,1;99750;80;0,0071;0,0;3,7;234;7,6;-3,02;-2,17;164;0;nan;39,0;40,4;42,1;41,3;10,7;10,9;11,3;12,1;-7,6;30,1;1466
2023-11-06 12:00:00;12,5;99762;78;0,0071;0,0;4,0;233;8,8;-3,18;-2,37;231;0;nan;38,9;40,4;42,1;41,3;10,8;10,9;11,3;12,1;-7,6;30,0;1467
2023-11-06 13:00:00;12,3;99768;76;0,0068;0,0;3,7;232;6,2;-2,88;-2,24;103;0;nan;38,7;40,3;42,0;41,3;10,9;11,0;11,3;12,1;-7,6;30,0;1468
2023-11-06 14:00:00;12,0;99795;75;0,0066;0,0;3,4;220;6,2;-2,19;-2,6;46;0;nan;38,6;40,3;42,0;41,3;10,9;11,1;11,3;12,1;-7,6;30,1;1465
2023-11-06 15:00:00;11,0;99878;79;0,0065;0,0;3,3;244;6,2;-2,99;-1,47;13;0;nan;38,5;40,2;42,0;41,3;10,9;11,1;11,3;12,1;-7,6;30,1;1466
2023-11-06 16:00:00;9,4;99973;87;0,0064;0,0;2,2;229;3,8;-1,64;-1,42;1;0;nan;38,4;40,2;42,0;41,3;10,9;11,1;11,3;12,1;-7,6;30,5;1460
2023-11-06 17:00:00;9,0;100045;88;0,0063;0,0;2,4;229;3,9;-1,78;-1,56;0;0;nan;38,3;40,2;41,9;41,3;10,8;11,1;11,3;12,1;-7,7;30,1;1466
2023-11-06 18:00:00;8,7;100123;89;0,0062;0,0;2,4;218;4,8;-1,48;-1,86;0;0;nan;38,3;40,1;41,9;41,3;10,8;11,1;11,3;12,1;-7,7;30,6;1460
2023-11-06 19:00:00;8,3;100184;90;0,0061;0,0;2,0;214;3,7;-1,13;-1,66;0;0;nan;38,2;40,1;41,9;41,2;10,7;11,0;11,3;12,1;-7,7;30,6;1460
2023-11-06 20:00:00;8,2;100237;90;0,0061;0,0;2,2;208;4,1;-1,05;-1,96;0;0;nan;38,1;40,1;41,9;41,2;10,6;11,0;11,3;12,0;-7,7;30,3;1463
2023-11-06 21:00:00;8,4;100268;90;0,0062;0,0;2,0;216;3,5;-1,19;-1,66;0;0;nan;38,1;40,1;41,9;41,2;10,6;11,0;11,3;12,1;-7,7;31,0;1454
2023-11-06 22:00:00;8,5;100304;90;0,0062;0,0;2,2;208;4,1;-1,04;-1,97;0;0;nan;38,0;40,0;41,9;41,2;10,5;10,9;11,3;12,1;-7,7;31,4;1449
2023-11-06 23:00:00;8,6;100347;90;0,0062;0,0;2,8;201;4,7;-0,96;-2,57;0;0;nan;38,0;40,0;41,9;41,2;10,4;10,9;11,3;12,0;-7,7;30,7;1458
2023-11-07 00:00:00;8,4;100402;91;0,0062;0,0;2,1;209;4,1;-1,02;-1,87;0;0;nan;37,9;40,0;41,9;41,2;10,4;10,9;11,3;12,1;-7,7;30,9;1456
2023-11-07 01:00:00;8,4;100435;90;0,0062;0,0;2,5;214;4,8;-1,38;-2,06;0;0;nan;37,8;40,0;41,9;41,2;10,4;10,8;11,3;12,0;-7,7;30,4;1462
2023-11-07 02:00:00;7,9;100435;92;0,0061;0,0;1,8;221;3,4;-1,16;-1,34;0;0;nan;37,8;40,0;41,8;41,2;10,3;10,8;11,2;12,0;-7,7;29,9;1468
2023-11-07 03:00:00;8,0;100436;92;0,0061;0,0;2,1;209;3,8;-1,01;-1,8;0;0;nan;37,7;40,0;41,8;41,2;10,3;10,8;11,2;12,0;-7,7;30,4;1461
2023-11-07 04:00:00;8,2;100445;91;0,0062;0,02;2,3;205;4,1;-1,0;-2,1;0;0;nan;37,7;39,9;41,8;41,2;10,3;10,7;11,2;12,0;-7,7;30,6;1459
2023-11-07 05:00:00;8,6;100442;92;0,0064;0,0;2,2;200;4,5;-0,74;-2,02;0;0;nan;37,6;39,9;41,8;41,2;10,2;10,7;11,2;12,0;-7,7;30,1;1466
2023-11-07 06:00:00;8,5;100460;91;0,0063;0,0;2,4;205;3,9;-0,98;-2,13;5;0;nan;37,6;39,9;41,7;41,2;10,2;10,7;11,1;12,0;-7,7;29,9;1469
2023-11-07 07:00:00;8,8;100486;92;0,0064;0,0;2,9;206;5,1;-1,26;-2,6;37;0;nan;37,5;39,9;41,7;41,1;10,2;10,7;11,1;12,0;-7,7;29,5;1475
2023-11-07 08:00:00;9,4;100540;91;0,0066;0,0;2,6;216;4,5;-1,49;-2,05;58;0;nan;37,5;39,9;41,7;41,1;10,2;10,7;11,1;12,0;-7,7;28,9;1482
2023-11-07 09:00:00;10,2;100590;90;0,007;0,0;3,1;238;5,5;-2,62;-1,67;166;0;nan;37,4;39,8;41,6;41,1;10,3;10,6;11,1;12,0;-7,7;28,7;1485
2023-11-07 10:00:00;10,9;100612;88;0,0071;0,0;3,4;239;6,5;-2,88;-1,75;245;0;nan;37,4;39,8;41,6;41,1;10,4;10,7;11,1;12,0;-7,7;28,7;1486
2023-11-07 11:00:00;10,7;100600;85;0,0068;0,0;3,3;235;6,5;-2,69;-1,85;134;0;nan;37,3;39,8;41,6;41,1;10,5;10,7;11,1;12,0;-7,7;28,3;1491
2023-11-07 12:00:00;11,0;100602;83;0,0067;0,0;3,0;250;6,3;-2,86;-1,03;168;0;nan;37,2;39,8;41,6;41,1;10,6;10,8;11,1;12,0;-7,7;28,3;1491
2023-11-07 13:00:00;11,2;100610;83;0,0068;0,0;3,2;251;5,5;-3,0;-1,04;217;0;nan;37,1;39,8;41,5;41,1;10,7;10,8;11,1;12,0;-7,7;28,6;1487
2023-11-07 14:00:00;10,4;100640;82;0,0064;0,0;3,0;241;5,3;-2,57;-1,45;66;0;nan;37,0;39,7;41,5;41,1;10,7;10,9;11,1;11,9;-7,7;28,5;1489
2023-11-07 15:00:00;9,8;100673;82;0,0062;0,0;2,7;234;5,4;-2,18;-1,55;13;0;nan;37,0;39,7;41,5;41,1;10,8;10,9;11,1;12,0;-7,7;28,7;1486
2023-11-07 16:00:00;9,5;100691;83;0,0061;0,0;2,3;221;3,9;-1,54;-1,75;0;0;nan;36,9;39,7;41,5;41,1;10,7;10,9;11,1;11,9;-7,8;28,3;1491
2023-11-07 17:00:00;8,8;100723;85;0,006;0,0;2,4;214;4,9;-1,34;-1,97;0;0;nan;36,9;39,7;41,4;41,0;10,7;10,9;11,2;11,9;-7,8;28,7;1485
2023-11-07 18:00:00;8,0;100745;87;0,0058;0,0;2,6;223;4,6;-1,75;-1,91;0;0;nan;36,8;39,7;41,4;41,0;10,6;10,9;11,2;11,9;-7,8;28,2;1492
2023-11-07 19:00:00;8,0;100753;87;0,0058;0,0;2,7;229;4,6;-2,0;-1,74;0;0;nan;36,8;39,7;41,4;41,0;10,5;10,9;11,2;11,9;-7,8;27,4;1504
2023-11-07 20:00:00;7,8;100774;89;0,0058;0,0;2,8;228;5,4;-2,06;-1,86;0;0;nan;36,8;39,6;41,4;41,0;10,4;10,8;11,2;11,9;-7,8;27,2;1508
2023-11-07 21:00:00;8,3;100788;88;0,0059;0,0;3,0;230;6,1;-2,32;-1,91;0;0;nan;36,7;39,6;41,4;41,0;10,3;10,8;11,2;11,9;-7,8;26,9;1512
2023-11-07 22:00:00;8,5;100783;87;0,006;0,0;3,2;236;5,6;-2,64;-1,79;0;0;nan;36,7;39,6;41,4;41,0;10,3;10,7;11,1;11,9;-7,8;26,8;1514
2023-11-07 23:00:00;8,5;100803;87;0,006;0,0;3,1;236;5,5;-2,53;-1,7;0;0;nan;36,7;39,6;41,4;41,0;10,2;10,7;11,1;11,9;-7,8;26,8;1513
2023-11-08 00:00:00;8,4;100830;88;0,006;0,0;3,0;243;5,6;-2,59;-1,31;0;0;nan;36,6;39,6;41,3;41,0;10,2;10,7;11,1;11,9;-7,8;26,8;1515
2023-11-08 01:00:00;8,2;100857;88;0,0059;0,0;2,6;239;4,7;-2,21;-1,34;0;0;nan;36,6;39,6;41,3;41,0;10,2;10,6;11,1;11,9;-7,8;27,1;1509
2023-11-08 02:00:00;8,2;100874;88;0,0059;0,0;2,9;251;4,7;-2,68;-0,94;0;0;nan;36,6;39,6;41,3;41,0;10,2;10,6;11,1;11,9;-7,8;27,8;1498
2023-11-08 03:00:00;8,2;100888;87;0,0059;0,0;2,8;250;5,6;-2,65;-0,96;0;0;nan;36,5;39,6;41,3;41,0;10,1;10,6;11,0;11,9;-7,8;27,3;1506
2023-11-08 04:00:00;7,4;100920;88;0,0056;0,0;2,7;247;4,3;-2,46;-1,06;0;0;nan;36,5;39,6;41,3;40,9;10,1;10,5;11,0;11,9;-7,8;27,2;1508
2023-11-08 05:00:00;7,4;100926;89;0,0056;0,0;2,8;241;5,1;-2,46;-1,34;0;0;nan;36,5;39,6;41,3;40,9;10,0;10,5;11,0;11,9;-7,8;27,7;1500
2023-11-08 06:00:00;7,6;100940;89;0,0057;0,0;2,9;232;4,2;-2,28;-1,75;0;0;nan;36,4;39,5;41,3;40,9;10,0;10,5;11,0;11,9;-7,8;28,0;1495
2023-11-08 07:00:00;8,1;100951;89;0,0059;0,0;2,6;225;4,6;-1,82;-1,81;20;0;nan;36,4;39,5;41,3;40,9;9,9;10,4;11,0;11,9;-7,8;28,5;1489